アトラス彗星

C/2019 C1 ( ATLAS )

English version
Home page
Updated on February 19, 2020

---------------------------------------------------------------------

・ プロフィール

発見日 2019年2月5日
発見光度 17.7等
発見者 Asteroid Terrestrial-Impact Last Alert System (ATLAS) search program

・ 写真集

・ 軌道要素

Epoch 2020 Apr. 21.0 TT = JDT 2458960.5
T 2020 May 5.70354 TT                                   Bell
q   6.5813061            (2000.0)            P               Q
z  +0.0012095      Peri.  319.18785     -0.92229703     -0.22385332
 +/-0.0000038      Node   212.39734     +0.19035268     -0.97255749
e   0.9920398      Incl.   36.01641     -0.33635406     +0.06341628
From 169 observations 2019 Jan. 14-2020 Feb. 4, mean residual 0".4.

・ 星図

・ 光度変化

        m1 = 4.5 + 5 logΔ + 10.0 log r

---------------------------------------------------------------------

軌道要素はM.P.E.C. 2020-C98に掲載されたものです。
星図はステラナビゲータ Ver.10 (アストロアーツ) で作成したものです。
光度グラフはComet for Windowsで作成したものです。

---------------------------------------------------------------------

Copyright(C) Seiichi Yoshida (comet@aerith.net). All rights reserved.